Location: Ostrava
(49.8330°N, 18.2830°E)
Time: 14:58:32
(UTC+01:00)

Daily predictions for brighter satellites

Satellite Brightness Start Highest point End
(mag) Time Altitude Azimuth Time Altitude Azimuth Time Altitude Azimuth
Cosmos 1844 3.7 16:49:39 10° NNW 16:55:26 76° ENE 17:01:13 10° SE
IDEFIX/ARIANE 42P 2.6 16:51:49 10° SSE 16:57:02 81° ENE 17:02:19 10° NNW
Cosmos 1238 4.4 16:55:21 10° S 16:59:08 84° E 17:02:17 10° N
CZ-2C R/B 3.9 16:54:44 10° NNE 16:59:33 89° W 17:04:20 10° SSW
Lacrosse 4 Rocket 3.2 16:59:41 10° N 17:01:43 13° NNE 17:03:43 10° ENE
SL-16 R/B 4.4 16:58:57 10° N 17:04:00 27° NW 17:09:04 10° WSW
AQUARIUS 4.2 17:03:27 10° SSE 17:07:57 88° ENE 17:12:30 10° NNW
COSMOS 2441 4.4 17:03:18 10° SSE 17:08:05 59° ENE 17:12:51 10° N
SJ-6B 4.4 17:05:46 10° ESE 17:08:32 18° ENE 17:11:19 10° NNE
Cosmos 2369 Rocket 4.0 17:09:27 10° N 17:11:59 13° NNE 17:14:30 10° NE
ATLAS 3B R/B 4.0 17:06:10 10° WNW 17:12:33 30° NNW 17:18:39 10° NE
Cosmos 2237 Rocket 3.2 17:08:12 10° SSE 17:12:49 27° ESE 17:17:29 10° NE
COSMOS 2428 2.7 17:08:01 10° SSW 17:13:42 72° ESE 17:19:25 10° NNE
Cosmos 2279 Rocket 4.4 17:08:58 10° N 17:14:47 40° ENE 17:20:35 10° SE
Cosmos 2237 4.3 17:12:57 10° SSW 17:18:40 90° NE 17:24:26 10° NNE
SL-16 R/B 3.8 17:16:27 10° SE 17:19:10 14° E 17:21:08 12° ENE
USA 215 3.3 17:12:49 10° ESE 17:19:23 80° NNE 17:25:57 10° WNW
Cosmos 332 Rocket 4.0 17:15:15 10° S 17:19:56 54° ESE 17:24:42 10° NNE
Cosmos 1908 4.1 17:18:56 10° NNW 17:22:44 53° W 17:26:32 10° S
Cosmos 1455 3.8 17:20:55 10° NNE 17:23:03 14° ENE 17:23:59 13° E
Cosmos 1766 Rocket 4.1 17:19:20 10° SSW 17:23:45 64° WNW 17:28:12 10° N
Cosmos 2297 4.1 17:18:48 10° NNW 17:24:13 43° NE 17:29:39 10° ESE
Cosmos 1674 2.8 17:24:25 10° SSW 17:28:14 79° W 17:32:08 10° N
Cosmos 2058 3.8 17:25:06 10° SSE 17:28:33 26° E 17:32:01 10° NNE
NOSS 3-2 (A) 4.5 17:22:45 10° W 17:28:43 42° NNW 17:35:21 10° NE
Cosmos 2346 Rocket 4.5 17:23:09 10° S 17:29:19 67° E 17:35:30 10° NNE
Cosmos 1763 Rocket 3.5 17:24:16 10° SSW 17:29:29 87° ESE 17:34:41 10° NNE
COSMO-SKYMED 1 3.1 17:26:25 10° NNE 17:30:29 37° E 17:34:31 10° SSE
Cosmos 372 Rocket 3.9 17:26:05 10° NNW 17:31:11 65° ENE 17:36:14 10° SE
Timation 1 Rocket 4.4 17:27:36 10° NNW 17:33:33 56° NE 17:39:27 10° SE
NOSS 3-2 (C) 4.4 17:27:42 10° WSW 17:33:45 45° NNW 17:40:28 10° NE
MSX 4.1 17:28:51 10° S 17:34:34 75° WSW 17:40:20 10° NNW
Cosmos 1726 2.1 17:30:50 10° N 17:34:36 69° E 17:38:21 10° SSE
Cosmos 44 4.2 17:30:10 10° S 17:34:51 34° ESE 17:38:12 16° ENE
YAOGAN 1 3.3 17:31:02 10° S 17:35:17 58° W 17:39:36 10° NNW
Cosmos 1340 Rocket 3.9 17:32:56 10° SE 17:36:05 23° E 17:38:00 17° NE
Cosmos 1844 Rocket 4.0 17:30:53 10° NW 17:36:16 45° WSW 17:41:36 10° S
Resurs 01 Rocket 2.9 17:33:05 10° ESE 17:36:20 20° ENE 17:39:36 10° NNE
USA 116 3.4 17:33:08 10° N 17:36:26 71° WNW 17:39:31 10° SSW
ALOS 3.4 17:33:52 10° ESE 17:37:28 23° ENE 17:41:06 10° N
SL-14 R/B 3.6 17:36:45 10° SSE 17:40:29 44° E 17:44:19 10° NNE
Cosmos 1300 2.6 17:38:48 10° N 17:42:40 82° E 17:46:30 10° SSE
Cosmos 2228 Rocket 4.2 17:38:48 10° NNW 17:43:03 48° W 17:47:18 10° SSW
SL-16 R/B 4.1 17:39:43 10° W 17:44:06 23° NW 17:48:32 10° NNE
Cosmos 1484 Rocket 2.9 17:40:46 10° S 17:44:42 81° WSW 17:48:44 10° NNW
Cosmos 540 Rocket 3.7 17:40:11 10° S 17:45:07 47° ESE 17:49:41 12° NE
Aureole 2 Rocket 3.7 17:41:55 10° SSE 17:45:07 27° ESE 17:46:26 22° ENE
BREEZE-M DEB (TANK) 4.4 17:46:33 10° SSE 17:47:18 11° SE 17:47:20 11° SE
Cosmos 371 Rocket 3.2 17:44:39 10° SSW 17:49:27 74° ESE 17:54:14 10° NNE
Meteor 1-11 4.4 17:45:40 10° SSE 17:51:09 51° E 17:56:44 10° NNE
Cosmos 2333 4.4 17:47:48 10° SW 17:53:24 72° WNW 17:59:01 10° NNE
Meteor 2-10 3.9 17:51:44 10° N 17:56:50 79° ENE 18:02:01 10° SSE
Cosmos 2360 Rocket 3.6 17:52:34 10° WSW 17:57:37 33° NW 18:02:43 10° NNE
CENTAUR R/B 2.8 17:51:27 10° SW 17:57:45 73° NW 18:03:58 14° NE
Cosmos 1980 3.7 17:54:46 10° SSW 18:00:22 64° ESE 18:05:02 15° NE
SKYMED 3 4.5 17:56:17 10° NNE 18:00:39 74° ESE 18:04:58 10° S
Cosmos 2151 2.8 17:59:18 10° S 18:03:29 80° E 18:07:43 10° NNE
FENGYUN 3A 4.0 17:58:40 10° SE 18:03:36 39° ENE 18:08:36 10° N
Cosmos 2242 Rocket 4.4 18:01:51 10° N 18:05:29 29° ENE 18:05:29 29° ENE
Meteor 1-28 Rocket 3.1 18:04:48 17° NNE 18:07:32 62° E 18:11:13 10° S
FengYun 1-2 T 4.4 18:02:26 10° SE 18:07:42 46° ENE 18:12:57 10° N
Lacrosse 5 rocket 2.3 18:06:19 10° WNW 18:09:53 42° SW 18:13:37 10° SSE
Cosmos 44 Rocket 3.3 18:04:52 10° SW 18:10:00 88° SE 18:13:08 24° NE
Thor Agena Rocket 4.2 18:05:51 10° N 18:11:01 56° WNW 18:16:05 10° SW
DMSP B5D1-3 4.4 18:06:13 10° NNE 18:11:19 68° ESE 18:16:23 10° S
METEOR-M 4.0 18:06:32 10° SSE 18:11:53 78° ENE 18:17:16 10° NNW
ATLAS 5 CENTAUR R/B 3.6 18:07:33 10° NW 18:11:56 23° NNE 18:13:40 20° NE
Cosmos 1151 Rocket 4.2 18:11:53 10° NNW 18:15:56 43° W 18:20:00 10° SSW
Cosmos 2333 Rocket 2.2 18:11:01 10° SSW 18:16:41 87° WNW 18:21:18 16° NNE
SKYMED 2 3.7 18:14:20 10° N 18:18:41 75° WNW 18:23:01 10° SSW
NOSS 0 Rocket 3.9 18:14:31 10° SSW 18:20:45 90° ESE 18:25:43 17° NNE
Spot 2 Rocket 3.6 18:17:26 10° SE 18:22:18 51° ENE 18:27:11 10° N
Cosmos 2219 Rocket 2.5 18:17:35 10° SW 18:23:11 65° WNW 18:28:01 14° NNE
Lacrosse 5 2.8 18:18:31 10° WNW 18:23:15 37° N 18:25:04 28° NE
Cosmos 1805 Rocket 3.5 18:20:52 10° S 18:25:17 64° E 18:27:52 24° NNE
CZ-4C R/B 3.8 18:21:53 10° NW 18:27:15 27° NNE 18:29:27 23° NE
Cosmos 2278 Rocket 3.6 18:21:59 10° NW 18:27:15 40° WSW 18:32:30 10° S
FREGAT/IRIS 2.7 18:27:12 10° S 18:30:14 75° WSW 18:33:20 10° NNW
Cosmos 1943 Rocket 3.8 18:27:10 10° N 18:30:05 17° NNE 18:30:05 17° NNE
Cosmos 304 Rocket 3.8 18:26:35 10° S 18:31:18 58° ESE 18:32:26 45° ENE
Cosmos 1538 Rocket 4.3 18:27:41 10° S 18:32:41 44° ESE 18:33:05 43° E
NOAA 12 4.4 18:27:34 10° S 18:32:47 68° WSW 18:38:03 10° NNW
BREEZE M DEB (TANK) 3.9 18:36:04 10° WSW 18:37:39 15° SW 18:37:59 15° SSW
Lacrosse 4 Rocket 1.7 18:37:16 10° NNW 18:40:36 49° N 18:40:36 49° N
SJ-6B 3.5 18:38:45 10° S 18:42:47 59° W 18:46:54 10° NNW
Sich 1 3.0 18:41:05 10° S 18:45:05 63° SE 18:45:05 63° SE
Cosmos 2084 3.8 18:46:04 10° WSW 18:49:47 48° NW 18:50:01 47° NNW
Cosmos 1633 Rocket 3.8 18:46:43 10° S 18:49:38 40° SSE 18:49:38 40° SSE
Cosmos 1703 3.5 18:48:05 10° SSW 18:51:58 68° WNW 18:52:25 61° NW
Cosmos 2237 Rocket 2.7 18:50:57 10° SW 18:56:31 59° NW 18:59:45 25° NNE
Cosmos 2369 Rocket 3.0 18:52:25 10° NNW 18:56:36 35° NNE 18:56:36 35° NNE
Cosmos 1626 3.3 18:54:06 10° SSW 18:56:25 36° SSW 18:56:25 36° SSW
COSMOS 2428 4.5 18:53:43 10° W 18:58:32 27° NW 19:02:51 12° N
Cosmos 1455 2.7 18:55:25 10° NNW 18:59:09 56° W 18:59:15 56° WSW
Cosmos 1461 4.2 18:57:38 10° SSW 18:59:57 31° SSW 18:59:57 31° SSW
SL-16 R/B 2.0 18:56:42 10° SSW 19:02:20 79° ESE 19:03:04 67° NE
USA 215 4.3 18:56:38 10° SSE 19:02:45 41° SW 19:08:54 10° WNW
ATLAS 3B R/B 3.9 18:59:27 10° NW 19:05:28 27° N 19:06:31 26° NNE
Aureole 1 Rocket 4.1 19:06:48 10° S 19:11:13 55° SSE 19:11:13 55° SSE
Cosmos 1340 Rocket 4.4 19:08:51 10° SW 19:12:25 33° WNW 19:13:42 26° NNW
Resurs 01 Rocket 2.2 19:10:33 32° SSW 19:12:27 57° W 19:16:51 10° NNW
ALOS 2.9 19:10:02 10° S 19:14:36 54° W 19:19:12 10° NNW
Cosmos 44 4.0 19:10:58 10° WSW 19:16:00 50° NW 19:16:40 46° NNW
Resurs 1-3 4.5 19:21:23 47° NW 19:21:23 47° NW 19:24:50 10° NNW
Aureole 2 Rocket 4.3 19:16:58 10° WSW 19:20:20 33° WNW 19:20:20 33° WNW
Nadezhda 4 Rocket 4.3 19:19:08 10° SSW 19:25:21 64° WNW 19:31:40 10° N
Cosmos 1092 Rocket 4.3 19:38:10 10° SSW 19:44:27 64° WNW 19:50:46 10° N
USA 229 DEB 4.3 19:40:07 10° SSW 19:44:36 43° SSW 19:44:36 43° SSW
USA 229 4.4 19:40:14 10° SSW 19:44:39 42° SSW 19:44:39 42° SSW
CENTAUR R/B 4.0 19:43:42 10° W 19:49:38 32° NNW 19:51:10 30° N
ATLAS 5 CENTAUR R/B 3.7 19:52:16 10° NW 19:55:14 30° NNW 19:55:14 30° NNW
Cosmos 2333 Rocket 4.2 19:57:27 10° W 20:01:47 22° NW 20:03:19 20° NNW
Lacrosse 5 3.9 20:02:13 10° WNW 20:04:17 23° NW 20:04:17 23° NW
Cosmos 2219 Rocket 4.4 20:04:34 10° WNW 20:08:18 18° NW 20:09:46 16° NNW
Cosmos 1943 Rocket 4.3 20:10:11 10° NNW 20:11:38 19° NNW 20:11:38 19° NNW
CZ-4C R/B 3.8 20:10:42 10° NW 20:14:38 35° NNW 20:14:38 35° NNW
Cosmos 2369 Rocket 4.4 20:36:30 10° NW 20:38:25 21° NW 20:38:25 21° NW
SL-16 R/B 4.4 20:42:29 10° W 20:45:01 20° WNW 20:45:01 20° WNW
ATLAS 3B R/B 4.4 20:50:55 10° NW 20:53:46 25° NNW 20:53:46 25° NNW
